Time,TemperatureF,DewpointF,PressureIn,WindDirection,WindDirectionDegrees,WindSpeedMPH,WindSpeedGustMPH,Humidity,HourlyPrecipIn,Conditions,Clouds,dailyrainin,SoftwareType,DateUTC
2013-04-03 00:03:00,51.4,43.0,29.98,East,94,5.0,6.0,73,0.00,,,0.00,Wunderground v.1.15,2013-04-03 05:03:00,
2013-04-03 00:08:00,51.5,43.1,29.98,ENE,61,5.0,10.0,73,0.00,,,0.00,Wunderground v.1.15,2013-04-03 05:08:00,
2013-04-03 00:13:00,51.7,43.7,29.97,East,88,5.0,8.0,74,0.00,,,0.00,Wunderground v.1.15,2013-04-03 05:13:00,
2013-04-03 00:19:00,51.8,43.8,29.97,East,82,6.0,9.0,74,0.00,,,0.00,Wunderground v.1.15,2013-04-03 05:19:00,
2013-04-03 00:25:00,51.8,44.1,29.97,East,86,7.0,14.0,75,0.00,,,0.00,Wunderground v.1.15,2013-04-03 05:25:00,
2013-04-03 00:30:00,51.6,43.9,29.97,East,99,8.0,9.0,75,0.00,,,0.00,Wunderground v.1.15,2013-04-03 05:30:00,
2013-04-03 00:36:00,51.5,44.2,29.96,East,92,8.0,12.0,76,0.00,,,0.00,Wunderground v.1.15,2013-04-03 05:36:00,
2013-04-03 00:42:00,51.4,44.4,29.96,SSE,148,7.0,8.0,77,0.00,,,0.00,Wunderground v.1.15,2013-04-03 05:42:00,
2013-04-03 00:47:00,51.4,44.8,29.95,ENE,60,7.0,12.0,78,0.00,,,0.00,Wunderground v.1.15,2013-04-03 05:47:00,
2013-04-03 00:53:00,51.4,44.8,29.95,ESE,115,7.0,7.0,78,0.00,,,0.00,Wunderground v.1.15,2013-04-03 05:53:00,
2013-04-03 01:00:00,51.4,45.1,29.95,SE,126,7.0,7.0,79,0.00,,,0.00,Wunderground v.1.15,2013-04-03 06:00:00,
2013-04-03 01:06:00,51.4,45.4,29.96,East,101,6.0,7.0,80,0.00,,,0.00,Wunderground v.1.15,2013-04-03 06:06:00,
2013-04-03 01:11:00,51.4,45.4,29.96,ESE,111,5.0,5.0,80,0.00,,,0.00,Wunderground v.1.15,2013-04-03 06:11:00,
2013-04-03 01:16:00,51.4,45.8,29.96,East,82,4.0,7.0,81,0.00,,,0.00,Wunderground v.1.15,2013-04-03 06:16:00,
2013-04-03 01:21:00,51.4,45.8,29.96,ESE,115,5.0,7.0,81,0.00,,,0.00,Wunderground v.1.15,2013-04-03 06:21:00,
2013-04-03 01:28:00,51.6,46.0,29.95,NE,40,6.0,9.0,81,0.00,,,0.00,Wunderground v.1.15,2013-04-03 06:28:00,
2013-04-03 01:34:00,51.7,45.7,29.95,ESE,108,5.0,11.0,80,0.00,,,0.00,Wunderground v.1.15,2013-04-03 06:34:00,
2013-04-03 01:39:00,51.9,45.9,29.95,ESE,103,5.0,8.0,80,0.00,,,0.00,Wunderground v.1.15,2013-04-03 06:39:00,
2013-04-03 01:45:00,52.1,46.1,29.95,ESE,103,6.0,13.0,80,0.00,,,0.00,Wunderground v.1.15,2013-04-03 06:45:00,
2013-04-03 01:52:00,52.2,46.2,29.96,SE,126,5.0,7.0,80,0.00,,,0.00,Wunderground v.1.15,2013-04-03 06:52:00,
2013-04-03 01:58:00,52.3,46.3,29.97,East,86,4.0,14.0,80,0.00,,,0.00,Wunderground v.1.15,2013-04-03 06:58:00,
2013-04-03 02:04:00,52.4,46.4,30.00,North,355,4.0,10.0,80,0.00,,,0.00,Wunderground v.1.15,2013-04-03 07:04:00,
2013-04-03 02:09:00,52.4,46.4,30.00,NNE,28,6.0,10.0,80,0.00,,,0.00,Wunderground v.1.15,2013-04-03 07:09:00,
2013-04-03 02:15:00,52.3,46.0,30.00,NNE,30,5.0,9.0,79,0.00,,,0.00,Wunderground v.1.15,2013-04-03 07:15:00,
2013-04-03 02:20:00,52.2,46.2,30.00,NNW,339,6.0,6.0,80,0.00,,,0.00,Wunderground v.1.15,2013-04-03 07:20:00,
2013-04-03 02:25:00,52.1,46.1,30.00,NNE,33,7.0,10.0,80,0.00,,,0.00,Wunderground v.1.15,2013-04-03 07:25:00,
2013-04-03 02:31:00,51.9,46.3,30.00,NNE,24,7.0,11.0,81,0.00,,,0.00,Wunderground v.1.15,2013-04-03 07:31:00,
2013-04-03 02:36:00,51.8,46.5,30.00,NNE,20,6.0,11.0,82,0.00,,,0.00,Wunderground v.1.15,2013-04-03 07:36:00,
2013-04-03 02:42:00,51.9,46.6,30.00,North,360,4.0,5.0,82,0.00,,,0.00,Wunderground v.1.15,2013-04-03 07:42:00,
2013-04-03 02:47:00,51.9,46.9,30.01,NNE,22,3.0,7.0,83,0.00,,,0.00,Wunderground v.1.15,2013-04-03 07:47:00,
2013-04-03 02:53:00,51.6,47.0,30.01,NNW,339,6.0,10.0,84,0.00,,,0.00,weatherlink.com 1.10,2013-04-03 07:53:00,
2013-04-03 02:59:00,51.2,46.8,30.01,NNE,16,6.0,10.0,85,0.00,,,0.00,Wunderground v.1.15,2013-04-03 07:59:00,
2013-04-03 03:05:00,50.7,46.7,30.01,NNE,30,6.0,11.0,86,0.00,,,0.00,Wunderground v.1.15,2013-04-03 08:05:00,
2013-04-03 03:10:00,50.3,46.3,30.01,North,5,7.0,7.0,86,0.00,,,0.00,Wunderground v.1.15,2013-04-03 08:10:00,
2013-04-03 03:16:00,49.7,46.0,30.01,NNW,344,7.0,10.0,87,0.00,,,0.00,Wunderground v.1.15,2013-04-03 08:16:00,
2013-04-03 03:22:00,49.4,46.0,30.02,NNE,24,7.0,7.0,88,0.00,,,0.01,Wunderground v.1.15,2013-04-03 08:22:00,
2013-04-03 03:27:00,49.1,45.7,30.02,North,9,6.0,9.0,88,0.14,,,0.03,Wunderground v.1.15,2013-04-03 08:27:00,
2013-04-03 03:32:00,48.8,45.7,30.02,NNW,331,5.0,6.0,89,0.16,,,0.04,Wunderground v.1.15,2013-04-03 08:32:00,
2013-04-03 03:38:00,48.6,46.0,30.02,NNE,17,7.0,11.0,90,0.04,,,0.04,weatherlink.com 1.10,2013-04-03 08:38:00,
2013-04-03 03:44:00,48.5,45.7,30.02,NNE,22,6.0,8.0,90,0.08,,,0.05,Wunderground v.1.15,2013-04-03 08:44:00,
2013-04-03 03:50:00,48.1,45.3,30.02,NW,317,7.0,7.0,90,0.05,,,0.05,Wunderground v.1.15,2013-04-03 08:50:00,
2013-04-03 03:56:00,48.1,45.6,30.03,NW,321,7.0,9.0,91,0.00,,,0.05,Wunderground v.1.15,2013-04-03 08:56:00,
2013-04-03 04:02:00,48.1,45.6,30.04,NNE,22,4.0,5.0,91,0.00,,,0.05,Wunderground v.1.15,2013-04-03 09:02:00,
2013-04-03 04:07:00,48.1,45.6,30.05,North,5,4.0,5.0,91,0.00,,,0.05,Wunderground v.1.15,2013-04-03 09:07:00,
2013-04-03 04:13:00,48.2,45.7,30.04,North,9,3.0,3.0,91,0.00,,,0.06,Wunderground v.1.15,2013-04-03 09:13:00,
2013-04-03 04:19:00,48.3,46.1,30.05,North,5,3.0,4.0,92,0.00,,,0.06,Wunderground v.1.15,2013-04-03 09:19:00,
2013-04-03 04:25:00,48.3,46.1,30.05,NNW,346,2.0,6.0,92,0.07,,,0.07,Wunderground v.1.15,2013-04-03 09:25:00,
2013-04-03 04:30:00,48.2,46.0,30.05,NE,36,3.0,6.0,92,0.07,,,0.07,Wunderground v.1.15,2013-04-03 09:30:00,
2013-04-03 04:36:00,48.2,46.0,30.05,NE,44,5.0,7.0,92,0.06,,,0.08,Wunderground v.1.15,2013-04-03 09:36:00,
2013-04-03 04:41:00,48.3,46.1,30.05,ENE,60,4.0,4.0,92,0.06,,,0.08,Wunderground v.1.15,2013-04-03 09:41:00,
2013-04-03 04:46:00,48.1,45.9,30.05,NE,38,5.0,7.0,92,0.04,,,0.08,Wunderground v.1.15,2013-04-03 09:46:00,
2013-04-03 04:52:00,47.9,45.4,30.05,NE,55,6.0,6.0,91,0.00,,,0.08,Wunderground v.1.15,2013-04-03 09:52:00,
2013-04-03 04:58:00,47.8,45.3,30.05,NNE,27,5.0,12.0,91,0.00,,,0.09,Wunderground v.1.15,2013-04-03 09:58:00,
2013-04-03 05:08:00,47.7,46.0,30.05,ENE,59,2.0,7.0,92,0.05,,,0.10,weatherlink.com 1.10,2013-04-03 10:08:00,
2013-04-03 05:13:00,47.7,45.5,30.05,NNE,29,2.0,2.0,92,0.06,,,0.11,Wunderground v.1.15,2013-04-03 10:13:00,
2013-04-03 05:19:00,47.7,45.5,30.04,ESE,104,1.0,1.0,92,0.06,,,0.11,Wunderground v.1.15,2013-04-03 10:19:00,
2013-04-03 05:24:00,47.6,45.4,30.04,NNE,17,1.0,2.0,92,0.04,,,0.11,Wunderground v.1.15,2013-04-03 10:24:00,
2013-04-03 05:30:00,47.6,45.4,30.04,East,81,2.0,2.0,92,0.04,,,0.12,Wunderground v.1.15,2013-04-03 10:30:00,
2013-04-03 05:35:00,47.5,45.3,30.04,East,84,2.0,3.0,92,0.04,,,0.12,Wunderground v.1.15,2013-04-03 10:35:00,
2013-04-03 05:42:00,47.5,45.3,30.04,NE,36,2.0,3.0,92,0.04,,,0.12,Wunderground v.1.15,2013-04-03 10:42:00,
2013-04-03 05:47:00,47.4,45.2,30.03,East,96,2.0,6.0,92,0.00,,,0.13,Wunderground v.1.15,2013-04-03 10:47:00,
2013-04-03 05:52:00,47.3,45.1,30.03,East,81,3.0,5.0,92,0.00,,,0.13,Wunderground v.1.15,2013-04-03 10:52:00,
2013-04-03 05:57:00,47.2,45.0,30.03,NE,47,3.0,9.0,92,0.06,,,0.14,Wunderground v.1.15,2013-04-03 10:57:00,
2013-04-03 06:02:00,47.1,44.9,30.02,ESE,103,3.0,4.0,92,0.06,,,0.14,Wunderground v.1.15,2013-04-03 11:02:00,
2013-04-03 06:07:00,46.9,44.7,30.02,ESE,103,4.0,7.0,92,0.06,,,0.15,Wunderground v.1.15,2013-04-03 11:07:00,
2013-04-03 06:12:00,46.7,44.5,30.00,SE,125,6.0,8.0,92,0.06,,,0.15,Wunderground v.1.15,2013-04-03 11:12:00,
2013-04-03 06:18:00,46.7,44.5,29.99,NE,37,6.0,9.0,92,0.07,,,0.16,Wunderground v.1.15,2013-04-03 11:18:00,
2013-04-03 06:24:00,46.6,45.0,29.97,East,91,5.0,13.0,93,0.06,,,0.17,weatherlink.com 1.10,2013-04-03 11:24:00,
2013-04-03 06:29:00,46.3,44.4,29.98,East,80,8.0,10.0,93,0.13,,,0.19,Wunderground v.1.15,2013-04-03 11:29:00,
2013-04-03 06:34:00,46.1,44.2,29.99,ENE,65,8.0,10.0,93,0.15,,,0.20,Wunderground v.1.15,2013-04-03 11:34:00,
2013-04-03 06:41:00,46.0,44.1,29.99,ENE,62,6.0,8.0,93,0.08,,,0.20,Wunderground v.1.15,2013-04-03 11:41:00,
2013-04-03 06:47:00,45.9,44.0,29.98,SE,135,6.0,10.0,93,0.04,,,0.20,Wunderground v.1.15,2013-04-03 11:47:00,
2013-04-03 06:52:00,45.9,44.0,29.98,East,92,6.0,13.0,93,0.00,,,0.20,Wunderground v.1.15,2013-04-03 11:52:00,
2013-04-03 06:57:00,45.8,43.9,29.98,East,80,6.0,13.0,93,0.00,,,0.20,Wunderground v.1.15,2013-04-03 11:57:00,
2013-04-03 07:03:00,45.8,43.9,29.99,ENE,62,6.0,7.0,93,0.00,,,0.20,Wunderground v.1.15,2013-04-03 12:03:00,
2013-04-03 07:08:00,45.9,44.0,30.00,East,82,6.0,11.0,93,0.00,,,0.20,Wunderground v.1.15,2013-04-03 12:08:00,
2013-04-03 07:13:00,45.9,44.0,30.00,East,86,5.0,9.0,93,0.00,,,0.20,Wunderground v.1.15,2013-04-03 12:13:00,
2013-04-03 07:18:00,45.8,43.9,30.01,NE,47,5.0,9.0,93,0.00,,,0.20,Wunderground v.1.15,2013-04-03 12:18:00,
2013-04-03 07:23:00,45.8,43.9,30.01,NE,42,4.0,7.0,93,0.00,,,0.20,Wunderground v.1.15,2013-04-03 12:23:00,
2013-04-03 07:29:00,45.7,43.8,30.01,NNE,31,5.0,9.0,93,0.00,,,0.20,Wunderground v.1.15,2013-04-03 12:29:00,
2013-04-03 07:34:00,45.4,43.5,30.02,NE,36,7.0,8.0,93,0.00,,,0.20,Wunderground v.1.15,2013-04-03 12:34:00,
2013-04-03 07:40:00,45.2,43.3,30.03,ENE,76,7.0,9.0,93,0.00,,,0.21,Wunderground v.1.15,2013-04-03 12:40:00,
2013-04-03 07:45:00,45.0,43.1,30.03,NE,54,7.0,9.0,93,0.00,,,0.21,Wunderground v.1.15,2013-04-03 12:45:00,
2013-04-03 07:50:00,45.0,43.1,30.04,ENE,67,6.0,6.0,93,0.00,,,0.21,Wunderground v.1.15,2013-04-03 12:50:00,
2013-04-03 07:57:00,45.0,43.1,30.06,NNE,27,5.0,15.0,93,0.00,,,0.21,Wunderground v.1.15,2013-04-03 12:57:00,
2013-04-03 08:03:00,45.1,43.2,30.07,ENE,74,6.0,6.0,93,0.00,,,0.21,Wunderground v.1.15,2013-04-03 13:03:00,
2013-04-03 08:08:00,45.2,43.0,30.07,NE,45,4.0,6.0,92,0.00,,,0.21,Wunderground v.1.15,2013-04-03 13:08:00,
2013-04-03 08:14:00,45.3,43.1,30.07,NNE,15,4.0,8.0,92,0.00,,,0.21,Wunderground v.1.15,2013-04-03 13:14:00,
2013-04-03 08:20:00,45.4,43.5,30.07,NNW,348,5.0,11.0,93,0.00,,,0.21,Wunderground v.1.15,2013-04-03 13:20:00,
2013-04-03 08:26:00,45.4,43.5,30.07,NE,54,6.0,11.0,93,0.00,,,0.21,Wunderground v.1.15,2013-04-03 13:26:00,
2013-04-03 08:32:00,45.2,43.0,30.08,NNE,24,6.0,6.0,92,0.00,,,0.21,Wunderground v.1.15,2013-04-03 13:32:00,
2013-04-03 08:38:00,45.1,42.9,30.07,NNE,19,6.0,8.0,92,0.00,,,0.21,Wunderground v.1.15,2013-04-03 13:38:00,
2013-04-03 08:44:00,45.0,42.8,30.08,NNE,30,6.0,8.0,92,0.00,,,0.21,Wunderground v.1.15,2013-04-03 13:44:00,
2013-04-03 08:50:00,45.0,42.8,30.08,NE,36,6.0,6.0,92,0.00,,,0.21,Wunderground v.1.15,2013-04-03 13:50:00,
2013-04-03 08:55:00,44.9,42.7,30.07,NE,36,6.0,12.0,92,0.00,,,0.21,Wunderground v.1.15,2013-04-03 13:55:00,
2013-04-03 09:00:00,45.0,42.8,30.08,NE,42,6.0,13.0,92,0.00,,,0.21,Wunderground v.1.15,2013-04-03 14:00:00,
2013-04-03 09:06:00,45.0,42.8,30.08,North,360,5.0,13.0,92,0.00,,,0.21,Wunderground v.1.15,2013-04-03 14:06:00,
2013-04-03 09:11:00,45.0,42.8,30.08,NE,34,6.0,6.0,92,0.00,,,0.21,Wunderground v.1.15,2013-04-03 14:11:00,
2013-04-03 09:17:00,45.1,42.9,30.08,East,79,5.0,8.0,92,0.00,,,0.21,Wunderground v.1.15,2013-04-03 14:17:00,
2013-04-03 09:22:00,45.2,43.0,30.08,NNE,24,5.0,10.0,92,0.00,,,0.21,Wunderground v.1.15,2013-04-03 14:22:00,
2013-04-03 09:28:00,45.2,43.0,30.08,ENE,61,5.0,10.0,92,0.00,,,0.21,Wunderground v.1.15,2013-04-03 14:28:00,
2013-04-03 09:33:00,45.1,42.9,30.08,NE,38,5.0,6.0,92,0.00,,,0.21,Wunderground v.1.15,2013-04-03 14:33:00,
2013-04-03 09:39:00,45.2,43.0,30.08,ENE,67,5.0,9.0,92,0.00,,,0.21,Wunderground v.1.15,2013-04-03 14:39:00,
2013-04-03 09:44:00,45.2,43.0,30.08,ENE,65,5.0,5.0,92,0.00,,,0.21,Wunderground v.1.15,2013-04-03 14:44:00,
2013-04-03 09:49:00,45.4,43.2,30.08,NE,50,4.0,4.0,92,0.00,,,0.21,Wunderground v.1.15,2013-04-03 14:49:00,
2013-04-03 09:55:00,45.4,43.0,30.09,ENE,78,3.0,12.0,92,0.00,,,0.21,weatherlink.com 1.10,2013-04-03 14:55:00,
2013-04-03 10:02:00,45.5,43.3,30.09,East,87,4.0,5.0,92,0.00,,,0.21,Wunderground v.1.15,2013-04-03 15:02:00,
2013-04-03 10:08:00,45.6,43.4,30.09,ENE,61,3.0,7.0,92,0.00,,,0.21,Wunderground v.1.15,2013-04-03 15:08:00,
2013-04-03 10:13:00,45.6,43.4,30.09,East,82,4.0,11.0,92,0.00,,,0.21,Wunderground v.1.15,2013-04-03 15:13:00,
2013-04-03 10:19:00,45.6,43.4,30.09,ENE,57,5.0,11.0,92,0.00,,,0.21,Wunderground v.1.15,2013-04-03 15:19:00,
2013-04-03 10:25:00,45.8,43.6,30.10,NNE,13,4.0,6.0,92,0.00,,,0.21,Wunderground v.1.15,2013-04-03 15:25:00,
2013-04-03 10:31:00,45.8,43.6,30.10,ENE,69,4.0,8.0,92,0.00,,,0.21,Wunderground v.1.15,2013-04-03 15:31:00,
2013-04-03 10:36:00,45.9,43.4,30.10,East,86,4.0,8.0,91,0.00,,,0.21,Wunderground v.1.15,2013-04-03 15:36:00,
2013-04-03 10:42:00,46.0,43.5,30.10,East,84,3.0,4.0,91,0.00,,,0.21,Wunderground v.1.15,2013-04-03 15:42:00,
2013-04-03 10:48:00,46.1,43.6,30.10,ESE,103,3.0,6.0,91,0.00,,,0.21,Wunderground v.1.15,2013-04-03 15:48:00,
2013-04-03 10:54:00,46.2,43.7,30.10,East,90,3.0,11.0,91,0.00,,,0.21,Wunderground v.1.15,2013-04-03 15:54:00,
2013-04-03 11:00:00,46.3,43.5,30.10,NE,50,4.0,5.0,90,0.00,,,0.21,Wunderground v.1.15,2013-04-03 16:00:00,
2013-04-03 11:06:00,46.5,43.7,30.10,ENE,72,4.0,7.0,90,0.00,,,0.21,Wunderground v.1.15,2013-04-03 16:06:00,
2013-04-03 11:11:00,46.8,44.0,30.10,NE,40,3.0,3.0,90,0.00,,,0.21,Wunderground v.1.15,2013-04-03 16:11:00,
2013-04-03 11:16:00,47.0,44.2,30.09,North,5,4.0,10.0,90,0.00,,,0.21,Wunderground v.1.15,2013-04-03 16:16:00,
2013-04-03 11:22:00,46.8,44.0,30.10,NE,51,4.0,5.0,90,0.00,,,0.21,Wunderground v.1.15,2013-04-03 16:22:00,
2013-04-03 11:26:00,46.8,44.0,30.10,NNE,16,4.0,5.0,90,0.00,,,0.21,Wunderground v.1.15,2013-04-03 16:26:00,
2013-04-03 11:31:00,46.8,44.0,30.10,NE,46,3.0,3.0,90,0.00,,,0.21,Wunderground v.1.15,2013-04-03 16:31:00,
2013-04-03 11:36:00,46.7,43.6,30.10,NNE,17,4.0,8.0,89,0.00,,,0.21,Wunderground v.1.15,2013-04-03 16:36:00,
2013-04-03 11:42:00,46.3,43.0,30.11,NNE,26,4.0,11.0,89,0.00,,,0.21,weatherlink.com 1.10,2013-04-03 16:42:00,
2013-04-03 11:48:00,46.3,43.5,30.11,NE,35,4.0,6.0,90,0.00,,,0.21,Wunderground v.1.15,2013-04-03 16:48:00,
2013-04-03 11:53:00,46.3,43.5,30.11,East,89,3.0,4.0,90,0.00,,,0.21,Wunderground v.1.15,2013-04-03 16:53:00,
2013-04-03 11:58:00,46.4,43.6,30.11,East,80,3.0,11.0,90,0.00,,,0.21,Wunderground v.1.15,2013-04-03 16:58:00,
2013-04-03 12:05:00,46.6,43.8,30.11,ENE,74,2.0,6.0,90,0.00,,,0.21,Wunderground v.1.15,2013-04-03 17:05:00,
2013-04-03 12:10:00,46.7,43.9,30.11,NNE,13,2.0,2.0,90,0.00,,,0.21,Wunderground v.1.15,2013-04-03 17:10:00,
2013-04-03 12:16:00,46.9,44.1,30.11,East,95,2.0,5.0,90,0.00,,,0.21,Wunderground v.1.15,2013-04-03 17:16:00,
2013-04-03 12:22:00,47.0,44.2,30.11,North,5,2.0,2.0,90,0.00,,,0.21,Wunderground v.1.15,2013-04-03 17:22:00,
2013-04-03 12:28:00,47.1,44.0,30.11,East,89,2.0,4.0,89,0.00,,,0.21,Wunderground v.1.15,2013-04-03 17:28:00,
2013-04-03 12:40:00,47.3,44.0,30.11,North,5,5.0,8.0,88,0.00,,,0.21,weatherlink.com 1.10,2013-04-03 17:40:00,
2013-04-03 12:55:00,47.2,44.0,30.10,NNE,25,3.0,9.0,88,0.00,,,0.21,weatherlink.com 1.10,2013-04-03 17:55:00,
2013-04-03 13:10:00,47.5,44.0,30.11,NNW,342,3.0,7.0,87,0.00,,,0.21,weatherlink.com 1.10,2013-04-03 18:10:00,
2013-04-03 13:25:00,47.6,44.0,30.10,NNE,28,9.0,9.0,87,0.00,,,0.21,weatherlink.com 1.10,2013-04-03 18:25:00,
2013-04-03 13:40:00,47.9,44.0,30.10,NE,55,2.0,9.0,86,0.00,,,0.21,weatherlink.com 1.10,2013-04-03 18:40:00,
2013-04-03 13:55:00,48.2,44.0,30.10,NNE,22,4.0,10.0,85,0.00,,,0.21,weatherlink.com 1.10,2013-04-03 18:55:00,
2013-04-03 14:11:00,48.6,44.0,30.10,East,81,1.0,9.0,85,0.00,,,0.21,weatherlink.com 1.10,2013-04-03 19:11:00,
2013-04-03 14:25:00,49.3,44.0,30.10,North,11,11.0,11.0,83,0.00,,,0.21,weatherlink.com 1.10,2013-04-03 19:25:00,
2013-04-03 14:40:00,49.5,45.0,30.09,ESE,106,3.0,10.0,83,0.00,,,0.21,weatherlink.com 1.10,2013-04-03 19:40:00,
2013-04-03 14:56:00,50.0,45.0,30.08,NNE,32,3.0,8.0,83,0.00,,,0.21,weatherlink.com 1.10,2013-04-03 19:56:00,
2013-04-03 15:10:00,50.4,45.0,30.08,ENE,77,1.0,10.0,82,0.00,,,0.21,weatherlink.com 1.10,2013-04-03 20:10:00,
2013-04-03 15:25:00,51.0,45.0,30.07,ENE,67,3.0,10.0,81,0.00,,,0.21,weatherlink.com 1.10,2013-04-03 20:25:00,
2013-04-03 15:40:00,51.3,45.0,30.06,NE,45,3.0,11.0,79,0.00,,,0.21,weatherlink.com 1.10,2013-04-03 20:40:00,
2013-04-03 15:56:00,51.2,45.0,30.07,NNW,342,3.0,9.0,79,0.00,,,0.21,weatherlink.com 1.10,2013-04-03 20:56:00,
2013-04-03 16:11:00,51.4,45.0,30.07,NNE,19,4.0,10.0,78,0.00,,,0.21,weatherlink.com 1.10,2013-04-03 21:11:00,
2013-04-03 16:26:00,51.5,45.0,30.08,ENE,67,5.0,9.0,78,0.00,,,0.21,weatherlink.com 1.10,2013-04-03 21:26:00,
2013-04-03 16:41:00,51.5,45.0,30.09,NNW,333,4.0,12.0,77,0.00,,,0.21,weatherlink.com 1.10,2013-04-03 21:41:00,
2013-04-03 16:56:00,51.3,45.0,30.09,NNE,17,3.0,11.0,78,0.00,,,0.21,weatherlink.com 1.10,2013-04-03 21:56:00,
2013-04-03 17:11:00,51.1,44.0,30.09,NNE,24,7.0,11.0,78,0.00,,,0.21,weatherlink.com 1.10,2013-04-03 22:11:00,
2013-04-03 17:26:00,51.0,44.0,30.09,NNE,13,4.0,10.0,78,0.00,,,0.21,weatherlink.com 1.10,2013-04-03 22:26:00,
2013-04-03 17:41:00,51.0,44.0,30.09,North,9,7.0,10.0,77,0.00,,,0.21,weatherlink.com 1.10,2013-04-03 22:41:00,
2013-04-03 17:52:00,50.9,43.6,30.09,North,5,6.0,6.0,76,0.00,,,0.21,Wunderground v.1.15,2013-04-03 22:52:00,
2013-04-03 17:58:00,50.7,43.8,30.09,North,355,6.0,12.0,77,0.00,,,0.21,Wunderground v.1.15,2013-04-03 22:58:00,
2013-04-03 18:04:00,50.6,43.7,30.09,NNE,30,6.0,8.0,77,0.00,,,0.21,Wunderground v.1.15,2013-04-03 23:04:00,
2013-04-03 18:09:00,50.6,43.3,30.09,North,360,6.0,8.0,76,0.00,,,0.21,Wunderground v.1.15,2013-04-03 23:09:00,
2013-04-03 18:14:00,50.6,43.7,30.09,NE,48,5.0,8.0,77,0.00,,,0.21,Wunderground v.1.15,2013-04-03 23:14:00,
2013-04-03 18:20:00,50.5,43.2,30.09,NNE,13,6.0,6.0,76,0.00,,,0.21,Wunderground v.1.15,2013-04-03 23:20:00,
2013-04-03 18:25:00,50.4,43.5,30.09,NE,48,7.0,9.0,77,0.00,,,0.21,Wunderground v.1.15,2013-04-03 23:25:00,
2013-04-03 18:31:00,49.9,44.3,30.06,ENE,64,6.0,8.0,81,0.66,,,0.23,Wunderground v.1.15,2013-04-03 23:31:00,
2013-04-03 18:37:00,48.8,44.5,30.06,NE,37,5.0,8.0,85,0.52,,,0.30,Wunderground v.1.15,2013-04-03 23:37:00,
2013-04-03 18:43:00,48.0,44.0,30.06,ENE,76,6.0,6.0,86,0.25,,,0.33,Wunderground v.1.15,2013-04-03 23:43:00,
2013-04-03 18:48:00,47.7,44.3,30.06,ENE,76,5.0,8.0,88,0.13,,,0.34,Wunderground v.1.15,2013-04-03 23:48:00,
2013-04-03 18:53:00,47.4,44.0,30.05,ENE,75,5.0,11.0,88,0.14,,,0.35,Wunderground v.1.15,2013-04-03 23:53:00,
2013-04-03 18:58:00,47.2,44.1,30.05,NE,46,5.0,13.0,89,0.12,,,0.36,Wunderground v.1.15,2013-04-03 23:58:00,
2013-04-03 19:04:00,47.1,44.3,30.05,ENE,76,4.0,6.0,90,0.08,,,0.37,Wunderground v.1.15,2013-04-04 00:04:00,
2013-04-03 19:09:00,46.9,44.1,30.05,SE,141,5.0,7.0,90,0.08,,,0.37,Wunderground v.1.15,2013-04-04 00:09:00,
2013-04-03 19:14:00,46.8,44.0,30.05,NE,54,4.0,5.0,90,0.05,,,0.37,Wunderground v.1.15,2013-04-04 00:14:00,
2013-04-03 19:20:00,46.8,44.0,30.05,NE,40,4.0,4.0,90,0.00,,,0.37,Wunderground v.1.15,2013-04-04 00:20:00,
2013-04-03 19:25:00,46.7,44.0,30.09,WNW,282,5.0,12.0,91,0.17,,,0.38,weatherlink.com 1.10,2013-04-04 00:25:00,
2013-04-03 19:30:00,46.7,44.2,30.11,WNW,292,4.0,4.0,91,0.07,,,0.39,Wunderground v.1.15,2013-04-04 00:30:00,
2013-04-03 19:37:00,46.8,44.3,30.11,NNE,22,3.0,6.0,91,0.12,,,0.41,Wunderground v.1.15,2013-04-04 00:37:00,
2013-04-03 19:42:00,46.8,44.3,30.11,North,5,3.0,4.0,91,0.15,,,0.42,Wunderground v.1.15,2013-04-04 00:42:00,
2013-04-03 19:48:00,46.7,44.2,30.10,NNE,22,3.0,5.0,91,0.21,,,0.44,Wunderground v.1.15,2013-04-04 00:48:00,
2013-04-03 19:54:00,46.6,44.1,30.08,NE,44,4.0,7.0,91,0.14,,,0.45,Wunderground v.1.15,2013-04-04 00:54:00,
2013-04-03 20:00:00,46.5,44.0,30.09,NNE,31,4.0,8.0,91,0.13,,,0.46,Wunderground v.1.15,2013-04-04 01:00:00,
2013-04-03 20:05:00,46.4,43.9,30.10,NNE,23,4.0,8.0,91,0.12,,,0.47,Wunderground v.1.15,2013-04-04 01:05:00,
2013-04-03 20:11:00,46.5,44.3,30.10,NNE,23,4.0,6.0,92,0.10,,,0.48,Wunderground v.1.15,2013-04-04 01:11:00,
2013-04-03 20:17:00,46.5,44.3,30.11,North,360,4.0,7.0,92,0.07,,,0.49,Wunderground v.1.15,2013-04-04 01:17:00,
2013-04-03 20:23:00,46.5,44.3,30.10,NNE,32,3.0,4.0,92,0.12,,,0.50,Wunderground v.1.15,2013-04-04 01:23:00,
2013-04-03 20:29:00,46.5,44.3,30.10,North,349,3.0,4.0,92,0.15,,,0.51,Wunderground v.1.15,2013-04-04 01:29:00,
2013-04-03 20:34:00,46.6,44.7,30.11,North,5,2.0,3.0,93,0.10,,,0.52,Wunderground v.1.15,2013-04-04 01:34:00,
2013-04-03 20:40:00,46.6,44.7,30.11,NNE,17,2.0,3.0,93,0.09,,,0.53,Wunderground v.1.15,2013-04-04 01:40:00,
2013-04-03 20:46:00,46.6,44.4,30.11,NNW,344,3.0,5.0,92,0.09,,,0.54,Wunderground v.1.15,2013-04-04 01:46:00,
2013-04-03 20:51:00,46.5,44.6,30.11,NNE,28,4.0,4.0,93,0.28,,,0.56,Wunderground v.1.15,2013-04-04 01:51:00,
2013-04-03 20:57:00,46.4,44.2,30.12,NNE,13,5.0,10.0,92,0.10,,,0.56,Wunderground v.1.15,2013-04-04 01:57:00,
2013-04-03 21:02:00,46.2,44.0,30.12,North,355,5.0,8.0,92,0.05,,,0.56,Wunderground v.1.15,2013-04-04 02:02:00,
2013-04-03 21:08:00,46.2,44.0,30.13,NE,44,4.0,8.0,92,0.04,,,0.57,Wunderground v.1.15,2013-04-04 02:08:00,
2013-04-03 21:14:00,46.1,43.9,30.13,NE,34,4.0,5.0,92,0.04,,,0.57,Wunderground v.1.15,2013-04-04 02:14:00,
2013-04-03 21:20:00,46.1,43.6,30.14,NNE,21,4.0,4.0,91,0.04,,,0.57,Wunderground v.1.15,2013-04-04 02:20:00,
2013-04-03 21:26:00,46.1,43.6,30.14,NNE,14,3.0,6.0,91,0.00,,,0.57,Wunderground v.1.15,2013-04-04 02:26:00,
2013-04-03 21:31:00,46.2,43.7,30.14,NNE,26,2.0,3.0,91,0.00,,,0.57,Wunderground v.1.15,2013-04-04 02:31:00,
2013-04-03 21:36:00,46.2,44.0,30.14,NNE,12,2.0,3.0,92,0.00,,,0.57,Wunderground v.1.15,2013-04-04 02:36:00,
2013-04-03 21:41:00,46.2,44.0,30.14,NE,34,2.0,5.0,92,0.04,,,0.57,weatherlink.com 1.10,2013-04-04 02:41:00,
2013-04-03 21:48:00,46.3,44.1,30.15,North,5,2.0,4.0,92,0.00,,,0.57,Wunderground v.1.15,2013-04-04 02:48:00,
2013-04-03 21:53:00,46.3,44.1,30.14,NNE,14,2.0,4.0,92,0.00,,,0.57,Wunderground v.1.15,2013-04-04 02:53:00,
2013-04-03 21:58:00,46.3,44.1,30.15,NNE,30,3.0,10.0,92,0.00,,,0.57,Wunderground v.1.15,2013-04-04 02:58:00,
2013-04-03 22:04:00,46.3,43.8,30.15,NE,36,4.0,4.0,91,0.00,,,0.57,Wunderground v.1.15,2013-04-04 03:04:00,
2013-04-03 22:09:00,46.2,43.7,30.16,NNE,28,3.0,4.0,91,0.00,,,0.58,Wunderground v.1.15,2013-04-04 03:09:00,
2013-04-03 22:15:00,46.1,43.6,30.16,NE,47,1.0,2.0,91,0.00,,,0.58,Wunderground v.1.15,2013-04-04 03:15:00,
2013-04-03 22:21:00,46.1,43.6,30.16,NE,46,1.0,1.0,91,0.00,,,0.58,Wunderground v.1.15,2013-04-04 03:21:00,
2013-04-03 22:26:00,46.1,43.6,30.16,NE,47,0.0,1.0,91,0.00,,,0.58,Wunderground v.1.15,2013-04-04 03:26:00,
2013-04-03 22:31:00,46.0,43.5,30.16,NE,43,0.0,1.0,91,0.00,,,0.58,Wunderground v.1.15,2013-04-04 03:31:00,
2013-04-03 22:37:00,45.9,43.4,30.15,ENE,72,2.0,2.0,91,0.00,,,0.58,Wunderground v.1.15,2013-04-04 03:37:00,
2013-04-03 22:42:00,45.8,43.3,30.15,East,81,2.0,3.0,91,0.00,,,0.58,Wunderground v.1.15,2013-04-04 03:42:00,
2013-04-03 22:48:00,45.6,43.1,30.15,ENE,72,2.0,3.0,91,0.00,,,0.58,Wunderground v.1.15,2013-04-04 03:48:00,
2013-04-03 22:54:00,45.5,43.3,30.16,East,93,1.0,2.0,92,0.00,,,0.58,Wunderground v.1.15,2013-04-04 03:54:00,
2013-04-03 23:00:00,45.5,43.3,30.16,East,93,0.0,0.0,92,0.00,,,0.59,Wunderground v.1.15,2013-04-04 04:00:00,
2013-04-03 23:01:00,45.5,43.0,30.16,East,93,0.0,0.0,91,0.00,,,0.59,Wunderground v.1.15,2013-04-04 04:01:00,
2013-04-03 23:02:00,45.5,43.3,30.16,East,93,0.0,1.0,92,0.00,,,0.59,Wunderground v.1.15,2013-04-04 04:02:00,
2013-04-03 23:04:00,45.4,43.2,30.16,East,93,0.0,1.0,92,0.00,,,0.59,Wunderground v.1.15,2013-04-04 04:04:00,
2013-04-03 23:09:00,45.4,43.2,30.15,ENE,75,0.0,3.0,92,0.07,,,0.60,Wunderground v.1.15,2013-04-04 04:09:00,
2013-04-03 23:15:00,45.3,43.1,30.16,ENE,65,1.0,2.0,92,0.06,,,0.60,Wunderground v.1.15,2013-04-04 04:15:00,
2013-04-03 23:21:00,45.3,43.1,30.16,ENE,65,1.0,1.0,92,0.04,,,0.60,Wunderground v.1.15,2013-04-04 04:21:00,
2013-04-03 23:26:00,45.3,43.1,30.16,ENE,65,0.0,1.0,92,0.00,,,0.60,Wunderground v.1.15,2013-04-04 04:26:00,
2013-04-03 23:31:00,45.3,43.1,30.16,ENE,65,0.0,0.0,92,0.00,,,0.60,Wunderground v.1.15,2013-04-04 04:31:00,
2013-04-03 23:37:00,45.3,43.1,30.16,ENE,65,0.0,0.0,92,0.00,,,0.60,Wunderground v.1.15,2013-04-04 04:37:00,
2013-04-03 23:42:00,45.3,43.0,30.16,ENE,65,0.0,1.0,92,0.02,,,0.60,weatherlink.com 1.10,2013-04-04 04:42:00,
2013-04-03 23:47:00,45.3,43.4,30.16,ENE,65,0.0,0.0,93,0.00,,,0.60,Wunderground v.1.15,2013-04-04 04:47:00,
2013-04-03 23:54:00,45.3,43.4,30.16,ENE,65,0.0,0.0,93,0.00,,,0.60,Wunderground v.1.15,2013-04-04 04:54:00,